Location: Del Amo
(33.8464°N, 118.2104°W)
Time: 20:07:19
(UTC+00:00)

S-56A Canister/Altair - Pass Details

Date: 17 September 2024
Orbit: 636 x 2487 km, 38.9° (Epoch: 14 October)

Event Time Altitude Azimuth Distance (km) Brightness Sun altitude
Rises 04:46:09 0° 285° (WNW) 3,567 11.9 -34.3°
Reaches altitude 10° 04:48:23 10° 289° (WNW) 2,800 11.2 -34.7°
Enters shadow 04:55:09 67° 9° (N) 1,437 8.7 -35.9°
Maximum altitude 04:55:14 67° 12° (NNE) 1,441 - -35.9°
Drops below altitude 10° 05:05:49 10° 94° (E) 4,214 - -37.8°
Sets 05:09:55 0° 97° (E) 5,482 - -38.5°
